Location: Tamazert
(32.6352°N, 5.2072°W)
Time: 17:06:58
(UTC+00:00)

Cosmos 2366 rocket - Pass Details

Date: 22 May 2022
Orbit: 955 x 997 km, 82.9° (Epoch: 28 June)

Event Time Altitude Azimuth Distance (km) Brightness Sun altitude
Rises 04:29:48 0° 350° (N) 3,638 7.3 -9.8°
Reaches altitude 10° 04:32:19 10° 347° (NNW) 2,690 6.6 -9.3°
Maximum altitude 04:38:23 65° 267° (W) 1,050 4.0 -8.2°
Drops below altitude 10° 04:44:28 10° 187° (S) 2,696 6.0 -7.1°
Sets 04:46:59 0° 184° (S) 3,645 6.7 -6.7°
